Soldotna, AK

5:13 PM AKST on January 22, 2018 (GMT -0900)
Soldotna

Weather History for PASX - January, 2014

Change the Weather History Date:

Friday, January 31, 2014

  Actual Average Record
Temperature  
Mean Temperature 20 °F -  
Max Temperature 28 °F 24 °F 40 °F (1983)
Min Temperature 12 °F 9 °F -26 °F (1989)
Degree Days  
Heating Degree Days 45    
Moisture  
Dew Point 15 °F    
Average Humidity 84    
Maximum Humidity 93    
Minimum Humidity 69    
Precipitation  
Precipitation 0.00 in - - ()
Sea Level Pressure  
Sea Level Pressure 30.25 in    
Wind  
Wind Speed 3 mph (East)    
Max Wind Speed 7 mph    
Max Gust Speed -    
Visibility 10 miles    
Events      
Averages and records for this station are not official NWS values.
T = Trace of Precipitation, MM = Missing Value Source: NWS Daily Summary

Daily Weather History Graph

Daily Weather History Graph

Search for Another Location

Airport or City:

Trip Planner

Search our weather history database for the weather conditions in past years. The results will help you decide how hot, cold, wet, or windy it might be!

Date:

Astronomy

Jan. 31, 2014 Rise Set
Actual Time 9:22 AM AKST 5:13 PM AKST
Civil Twilight 8:33 AM AKST 6:02 PM AKST
Nautical Twilight 7:42 AM AKST 6:54 PM AKST
Astronomical Twilight 6:52 AM AKST 7:43 PM AKST
Moon 9:06 AM AKST (1/31) 7:29 PM AKST (1/31)
Length of Visible Light 9h 28m
Length of Day
7h 51m
New Moon, 1% of the Moon is Illuminated
Jan 31
New Moon
Feb 6
First Quarter
Feb 14
Full
Feb 22
Last Quarter
Feb 28
New

Hourly Weather History & Observations

Time (AKST) Temp. Windchill Dew Point Humidity Pressure Visibility Wind Dir Wind Speed Gust Speed Precip Events Conditions
12:16 AM 17.6 °F - 12.2 °F 79% 30.22 in 10.0 mi Calm Calm - N/A   Clear
12:36 AM 15.8 °F 10.2 °F 8.6 °F 73% 30.21 in 10.0 mi East 3.5 mph - N/A   Clear
12:56 AM 17.6 °F 9.3 °F 15.8 °F 93% 30.21 in 10.0 mi East 5.8 mph - N/A   Clear
1:16 AM 17.6 °F 10.7 °F 15.8 °F 93% 30.21 in 10.0 mi East 4.6 mph - N/A   Clear
1:36 AM 17.6 °F 9.3 °F 14.0 °F 86% 30.21 in 10.0 mi East 5.8 mph - N/A   Clear
1:56 AM 17.6 °F 12.3 °F 15.8 °F 93% 30.21 in 10.0 mi ESE 3.5 mph - N/A   Clear
2:16 AM 17.6 °F - 14.0 °F 86% 30.21 in 10.0 mi Calm Calm - N/A   Clear
2:36 AM 17.6 °F - 15.8 °F 93% 30.21 in 10.0 mi Calm Calm - N/A   Clear
2:56 AM 17.6 °F - 12.2 °F 79% 30.22 in 10.0 mi Calm Calm - N/A   Clear
3:16 AM 15.8 °F - 10.4 °F 79% 30.22 in 10.0 mi Calm Calm - N/A   Clear
3:36 AM 15.8 °F 10.2 °F 12.2 °F 86% 30.22 in 10.0 mi ENE 3.5 mph - N/A   Clear
3:56 AM 15.8 °F - 12.2 °F 86% 30.23 in 10.0 mi Calm Calm - N/A   Clear
4:16 AM 15.8 °F - 10.4 °F 79% 30.22 in 10.0 mi Calm Calm - N/A   Clear
4:36 AM 12.2 °F 2.9 °F 8.6 °F 85% 30.22 in 10.0 mi East 5.8 mph - N/A   Clear
4:56 AM 17.6 °F 10.7 °F 14.0 °F 86% 30.22 in 10.0 mi East 4.6 mph - N/A   Clear
5:16 AM 17.6 °F 9.3 °F 14.0 °F 86% 30.21 in 10.0 mi East 5.8 mph - N/A   Clear
5:36 AM 17.6 °F 9.3 °F 15.8 °F 93% 30.21 in 10.0 mi East 5.8 mph - N/A   Clear
5:56 AM 17.6 °F 10.7 °F 14.0 °F 86% 30.21 in 10.0 mi East 4.6 mph - N/A   Clear
6:16 AM 17.6 °F 12.3 °F 14.0 °F 86% 30.22 in 10.0 mi East 3.5 mph - N/A   Clear
6:36 AM 17.6 °F 12.3 °F 12.2 °F 79% 30.22 in 10.0 mi East 3.5 mph - N/A   Clear
6:56 AM 15.8 °F - 12.2 °F 86% 30.22 in 10.0 mi Calm Calm - N/A   Clear
7:16 AM 15.8 °F 10.2 °F 12.2 °F 86% 30.23 in 10.0 mi East 3.5 mph - N/A   Clear
7:36 AM 14.0 °F - 10.4 °F 86% 30.23 in 10.0 mi Calm Calm - N/A   Clear
7:56 AM 15.8 °F 10.2 °F 10.4 °F 79% 30.23 in 10.0 mi East 3.5 mph - N/A   Clear
8:16 AM 15.8 °F 7.2 °F 12.2 °F 86% 30.23 in 10.0 mi East 5.8 mph - N/A   Clear
8:36 AM 15.8 °F 8.6 °F 12.2 °F 86% 30.24 in 10.0 mi East 4.6 mph - N/A   Clear
8:56 AM 15.8 °F 7.2 °F 12.2 °F 86% 30.23 in 10.0 mi East 5.8 mph - N/A   Clear
9:16 AM 15.8 °F 8.6 °F 12.2 °F 86% 30.23 in 10.0 mi East 4.6 mph - N/A   Clear
9:36 AM 15.8 °F - 12.2 °F 86% 30.24 in 10.0 mi Calm Calm - N/A   Clear
9:56 AM 15.8 °F 8.6 °F 12.2 °F 86% 30.24 in 10.0 mi East 4.6 mph - N/A   Clear
10:16 AM 15.8 °F 8.6 °F 12.2 °F 86% 30.24 in 10.0 mi East 4.6 mph - N/A   Clear
10:36 AM 15.8 °F 10.2 °F 12.2 °F 86% 30.24 in 10.0 mi East 3.5 mph - N/A   Clear
10:56 AM 17.6 °F 9.3 °F 14.0 °F 86% 30.24 in 10.0 mi East 5.8 mph - N/A   Clear
11:16 AM 17.6 °F 12.3 °F 12.2 °F 79% 30.24 in 10.0 mi East 3.5 mph - N/A   Clear
11:36 AM 17.6 °F 12.3 °F 14.0 °F 86% 30.24 in 10.0 mi East 3.5 mph - N/A   Clear
11:56 AM 17.6 °F 8.2 °F 15.8 °F 93% 30.24 in 10.0 mi East 6.9 mph - N/A   Clear
12:16 PM 19.4 °F 10.4 °F 17.6 °F 93% 30.24 in 10.0 mi East 6.9 mph - N/A   Clear
12:36 PM 21.2 °F - 17.6 °F 86% 30.25 in 10.0 mi Calm Calm - N/A   Clear
12:56 PM 23.0 °F - 17.6 °F 80% 30.26 in 10.0 mi Calm Calm - N/A   Clear
1:16 PM 23.0 °F - 17.6 °F 80% 30.26 in 10.0 mi Calm Calm - N/A   Clear
1:36 PM 24.8 °F - 17.6 °F 74% 30.26 in 10.0 mi Calm Calm - N/A   Clear
1:56 PM 26.6 °F 22.6 °F 19.4 °F 74% 30.25 in 10.0 mi East 3.5 mph - N/A   Clear
2:16 PM 26.6 °F 22.6 °F 21.2 °F 80% 30.25 in 10.0 mi ESE 3.5 mph - N/A   Clear
2:36 PM 26.6 °F 22.6 °F 19.4 °F 74% 30.25 in 10.0 mi ESE 3.5 mph - N/A   Clear
2:56 PM 26.6 °F - 19.4 °F 74% 30.25 in 10.0 mi Calm Calm - N/A   Clear
3:16 PM 26.6 °F - 19.4 °F 74% 30.25 in 10.0 mi Calm Calm - N/A   Clear
3:36 PM 28.4 °F - 19.4 °F 69% 30.25 in 10.0 mi Calm Calm - N/A   Clear
3:56 PM 26.6 °F - 19.4 °F 74% 30.26 in 10.0 mi Calm Calm - N/A   Clear
4:16 PM 26.6 °F - 19.4 °F 74% 30.26 in 10.0 mi Calm Calm - N/A   Clear
4:36 PM 24.8 °F - 19.4 °F 80% 30.26 in 10.0 mi Calm Calm - N/A   Clear
4:56 PM 24.8 °F - 19.4 °F 80% 30.26 in 10.0 mi Calm Calm - N/A   Clear
5:16 PM 21.2 °F - 17.6 °F 86% 30.26 in 10.0 mi Calm Calm - N/A   Clear
5:36 PM 21.2 °F - 15.8 °F 80% 30.26 in 10.0 mi Calm Calm - N/A   Clear
5:56 PM 21.2 °F 14.9 °F 17.6 °F 86% 30.27 in 10.0 mi East 4.6 mph - N/A   Clear
6:16 PM 21.2 °F 16.4 °F 17.6 °F 86% 30.27 in 10.0 mi East 3.5 mph - N/A   Clear
6:36 PM 21.2 °F 14.9 °F 17.6 °F 86% 30.27 in 10.0 mi ESE 4.6 mph - N/A   Clear
6:56 PM 21.2 °F 14.9 °F 17.6 °F 86% 30.27 in 10.0 mi East 4.6 mph - N/A   Clear
7:16 PM 21.2 °F 16.4 °F 17.6 °F 86% 30.27 in 10.0 mi ESE 3.5 mph - N/A   Clear
7:36 PM 21.2 °F 16.4 °F 17.6 °F 86% 30.27 in 10.0 mi East 3.5 mph - N/A   Clear
7:56 PM 21.2 °F 14.9 °F 17.6 °F 86% 30.27 in 10.0 mi East 4.6 mph - N/A   Clear
8:16 PM 21.2 °F - 17.6 °F 86% 30.27 in 10.0 mi Calm Calm - N/A   Clear
8:36 PM 21.2 °F 16.4 °F 17.6 °F 86% 30.28 in 10.0 mi East 3.5 mph - N/A   Clear
8:56 PM 19.4 °F 14.3 °F 15.8 °F 86% 30.28 in 10.0 mi ESE 3.5 mph - N/A   Clear
9:16 PM 19.4 °F 14.3 °F 15.8 °F 86% 30.28 in 10.0 mi East 3.5 mph - N/A   Clear
9:36 PM 19.4 °F 14.3 °F 17.6 °F 93% 30.28 in 10.0 mi East 3.5 mph - N/A   Clear
9:56 PM 19.4 °F - 15.8 °F 86% 30.28 in 10.0 mi Calm Calm - N/A   Clear
10:16 PM 19.4 °F - 15.8 °F 86% 30.29 in 10.0 mi Calm Calm - N/A   Clear
10:36 PM 17.6 °F 12.3 °F 14.0 °F 86% 30.29 in 10.0 mi East 3.5 mph - N/A   Clear
10:56 PM 17.6 °F - 15.8 °F 93% 30.29 in 10.0 mi Calm Calm - N/A   Clear
11:16 PM 17.6 °F - 12.2 °F 79% 30.29 in 10.0 mi Calm Calm - N/A   Clear
11:36 PM 15.8 °F - 14.0 °F 93% 30.30 in 10.0 mi Calm Calm - N/A   Clear
11:56 PM 15.8 °F 10.2 °F 12.2 °F 86% 30.30 in 10.0 mi East 3.5 mph - N/A   Clear